Weather History for Saratoga Shively Field Airpor, WY

Change the Weather History Date:

Sunday, March 23, 2014

  Actual Average Record
Temperature  
Mean Temperature 32 °F -  
Max Temperature 46 °F 46 °F 46 °F (2014)
Min Temperature 19 °F 23 °F 19 °F (2014)
Degree Days  
Heating Degree Days 32    
Moisture  
Dew Point 12 °F    
Average Humidity 49    
Maximum Humidity 86    
Minimum Humidity 16    
Precipitation  
Precipitation 0.00 in - - ()
Sea Level Pressure  
Sea Level Pressure 30.10 in    
Wind  
Wind Speed 12 mph (SW)    
Max Wind Speed 30 mph    
Max Gust Speed 38 mph    
Visibility 10 miles    
Events      
Averages and records for this station are not official NWS values.
T = Trace of Precipitation, MM = Missing Value Source: NWS Daily Summary

Daily Weather History Graph

Daily Weather History Graph

Search for Another Location

Airport:

Trip Planner

Search our weather history database for the weather conditions in past years. The results will help you decide how hot, cold, wet, or windy it might be!

Date:

Astronomy

Mar. 23, 2014 Rise Set
Actual Time 7:05 AM MDT 7:22 PM MDT
Civil Twilight 6:37 AM MDT 7:50 PM MDT
Nautical Twilight 6:05 AM MDT 8:23 PM MDT
Astronomical Twilight 5:32 AM MDT 8:56 PM MDT
Moon 1:45 AM MDT (3/23) 11:46 AM MDT (3/23)
Length of Visible Light 13h 12m
Length of Day
12h 17m
Waning Gibbous, 54% of the Moon is Illuminated
Mar 23
Waning Gibbous
Mar 23
Last Quarter
Mar 30
New
Apr 7
First Quarter
Apr 15
Full

Hourly Weather History & Observations

Time (MDT) Temp. Windchill Dew Point Humidity Pressure Visibility Wind Dir Wind Speed Gust Speed Precip Events Conditions
12:16 AM 23.0 °F 12.4 °F 17.6 °F 80% 30.17 in 10.0 mi SSE 10.4 mph - N/A   Clear
12:35 AM 24.8 °F 14.6 °F 17.6 °F 74% 30.17 in 10.0 mi SSE 10.4 mph - N/A   Clear
12:55 AM 23.0 °F 14.7 °F 17.6 °F 80% 30.16 in 10.0 mi SE 6.9 mph - N/A   Clear
1:15 AM 23.0 °F 13.1 °F 17.6 °F 80% 30.16 in 10.0 mi SSE 9.2 mph - N/A   Clear
1:35 AM 21.2 °F 11.7 °F 17.6 °F 86% 30.16 in 10.0 mi SE 8.1 mph - N/A   Clear
1:55 AM 21.2 °F 11.7 °F 15.8 °F 80% 30.16 in 10.0 mi SSE 8.1 mph - N/A   Clear
2:15 AM 23.0 °F 13.1 °F 17.6 °F 80% 30.15 in 10.0 mi SSE 9.2 mph - N/A   Clear
2:35 AM 21.2 °F 10.9 °F 15.8 °F 80% 30.14 in 10.0 mi SSE 9.2 mph - N/A   Clear
2:56 AM 21.2 °F 12.6 °F 15.8 °F 80% 30.14 in 10.0 mi South 6.9 mph - N/A   Clear
3:15 AM 21.2 °F 16.4 °F 17.6 °F 86% 30.14 in 10.0 mi East 3.5 mph - N/A   Clear
3:35 AM 21.2 °F 14.9 °F 15.8 °F 80% 30.14 in 10.0 mi ESE 4.6 mph - N/A   Clear
3:55 AM 19.4 °F 12.8 °F 15.8 °F 86% 30.14 in 10.0 mi ESE 4.6 mph - N/A   Clear
4:15 AM 19.4 °F - 15.8 °F 86% 30.14 in 10.0 mi Calm Calm - N/A   Clear
4:35 AM 19.4 °F 11.5 °F 15.8 °F 86% 30.14 in 10.0 mi SE 5.8 mph - N/A   Clear
4:55 AM 19.4 °F 11.5 °F 14.0 °F 80% 30.13 in 10.0 mi SSE 5.8 mph - N/A   Clear
5:15 AM 19.4 °F 10.4 °F 15.8 °F 86% 30.13 in 10.0 mi SSE 6.9 mph - N/A   Clear
5:35 AM 21.2 °F 14.9 °F 14.0 °F 74% 30.13 in 10.0 mi South 4.6 mph - N/A   Clear
5:55 AM 21.2 °F 16.4 °F 14.0 °F 74% 30.12 in 10.0 mi SSW 3.5 mph - N/A   Clear
6:15 AM 26.6 °F 19.1 °F 12.2 °F 55% 30.12 in 10.0 mi SSW 6.9 mph - N/A   Clear
6:35 AM 19.4 °F 9.5 °F 14.0 °F 80% 30.12 in 10.0 mi SSE 8.1 mph - N/A   Clear
6:55 AM 19.4 °F 9.5 °F 14.0 °F 80% 30.12 in 10.0 mi SSE 8.1 mph - N/A   Clear
7:15 AM 19.4 °F 10.4 °F 14.0 °F 80% 30.12 in 10.0 mi SSE 6.9 mph - N/A   Clear
7:35 AM 19.4 °F 10.4 °F 14.0 °F 80% 30.12 in 10.0 mi ESE 6.9 mph - N/A   Clear
7:55 AM 23.0 °F 17.0 °F 17.6 °F 80% 30.13 in 10.0 mi ESE 4.6 mph - N/A   Clear
8:15 AM 26.6 °F 19.1 °F 17.6 °F 69% 30.13 in 10.0 mi ESE 6.9 mph - N/A   Clear
8:35 AM 30.2 °F 23.4 °F 19.4 °F 64% 30.13 in 10.0 mi ESE 6.9 mph - N/A   Clear
8:55 AM 32.0 °F 24.8 °F 17.6 °F 55% 30.13 in 10.0 mi SE 8.1 mph - N/A   Clear
9:15 AM 33.8 °F 27.0 °F 15.8 °F 48% 30.13 in 10.0 mi ESE 8.1 mph - N/A   Clear
9:35 AM 35.6 °F 29.2 °F 15.8 °F 44% 30.13 in 10.0 mi SE 8.1 mph - N/A   Clear
9:55 AM 35.6 °F - 12.2 °F 38% 30.13 in 10.0 mi Calm Calm - N/A   Clear
10:15 AM 39.2 °F 29.6 °F 12.2 °F 33% 30.12 in 10.0 mi West 19.6 mph 25.3 mph N/A   Clear
10:35 AM 39.2 °F 28.5 °F 12.2 °F 33% 30.12 in 10.0 mi West 24.2 mph 32.2 mph N/A   Clear
10:55 AM 39.2 °F 29.3 °F 10.4 °F 31% 30.13 in 10.0 mi WSW 20.7 mph 28.8 mph N/A   Clear
11:15 AM 41.0 °F 31.6 °F 10.4 °F 29% 30.12 in 10.0 mi WSW 20.7 mph 27.6 mph N/A   Clear
11:36 AM 41.0 °F 31.6 °F 10.4 °F 29% 30.13 in 10.0 mi West 20.7 mph 27.6 mph N/A   Clear
11:55 AM 41.0 °F 32.2 °F 8.6 °F 26% 30.12 in 10.0 mi West 18.4 mph 26.5 mph N/A   Clear
12:15 PM 41.0 °F 31.6 °F 10.4 °F 29% 30.12 in 10.0 mi West 20.7 mph 27.6 mph N/A   Clear
12:35 PM 41.0 °F 30.9 °F 10.4 °F 29% 30.11 in 10.0 mi WSW 24.2 mph 28.8 mph N/A   Clear
12:55 PM 42.8 °F 33.3 °F 10.4 °F 27% 30.10 in 10.0 mi West 24.2 mph 33.4 mph N/A   Clear
1:15 PM 42.8 °F 34.3 °F 10.4 °F 27% 30.09 in 10.0 mi WSW 19.6 mph 33.4 mph N/A   Clear
1:35 PM 42.8 °F 32.5 °F 8.6 °F 25% 30.08 in 10.0 mi WSW 28.8 mph 34.5 mph N/A   Clear
1:55 PM 44.6 °F 35.5 °F 10.4 °F 25% 30.06 in 10.0 mi WSW 25.3 mph 33.4 mph N/A   Clear
2:15 PM 44.6 °F 34.9 °F 8.6 °F 23% 30.05 in 10.0 mi West 28.8 mph 35.7 mph N/A   Clear
2:35 PM 44.6 °F 36.4 °F 8.6 °F 23% 30.05 in 10.0 mi WSW 20.7 mph 32.2 mph N/A   Clear
2:55 PM 44.6 °F 34.9 °F 8.6 °F 23% 30.04 in 10.0 mi WSW 28.8 mph 38.0 mph N/A   Clear
3:15 PM 46.4 °F 37.9 °F 1.4 °F 16% 30.04 in 10.0 mi West 25.3 mph 35.7 mph N/A   Clear
3:35 PM 46.4 °F 37.2 °F 1.4 °F 16% 30.03 in 10.0 mi West 29.9 mph 36.8 mph N/A   Clear
3:55 PM 46.4 °F 38.5 °F 3.2 °F 17% 30.02 in 10.0 mi West 21.9 mph 35.7 mph N/A   Scattered Clouds
4:15 PM 46.4 °F 37.7 °F 3.2 °F 17% 30.02 in 10.0 mi West 26.5 mph 34.5 mph N/A   Scattered Clouds
4:35 PM 46.4 °F 38.1 °F 3.2 °F 17% 30.01 in 10.0 mi West 24.2 mph 36.8 mph N/A   Clear
4:55 PM 46.4 °F 37.4 °F 1.4 °F 16% 30.01 in 10.0 mi West 28.8 mph 35.7 mph N/A   Clear
5:15 PM 46.4 °F 37.9 °F 1.4 °F 16% 30.01 in 10.0 mi West 25.3 mph 35.7 mph N/A   Clear
5:36 PM 44.6 °F 35.3 °F 5.0 °F 20% 30.01 in 10.0 mi West 26.5 mph 31.1 mph N/A   Clear
5:55 PM 42.8 °F 33.8 °F 3.2 °F 19% 30.02 in 10.0 mi West 21.9 mph 32.2 mph N/A   Clear
6:15 PM 42.8 °F 34.5 °F 5.0 °F 21% 30.02 in 10.0 mi West 18.4 mph 27.6 mph N/A   Clear
6:35 PM 41.0 °F 31.6 °F 5.0 °F 23% 30.02 in 10.0 mi West 20.7 mph 28.8 mph N/A   Clear
6:55 PM 41.0 °F 31.6 °F 5.0 °F 23% 30.03 in 10.0 mi West 20.7 mph 26.5 mph N/A   Clear
7:15 PM 41.0 °F 31.6 °F 3.2 °F 21% 30.04 in 10.0 mi West 20.7 mph 35.7 mph N/A   Clear
7:36 PM 37.4 °F 28.9 °F 5.0 °F 26% 30.05 in 10.0 mi WNW 13.8 mph 26.5 mph N/A   Clear
7:55 PM 35.6 °F 27.1 °F 6.8 °F 30% 30.06 in 10.0 mi WNW 12.7 mph - N/A   Clear
8:15 PM 33.8 °F 25.8 °F 8.6 °F 35% 30.06 in 10.0 mi West 10.4 mph - N/A   Clear
8:35 PM 32.0 °F 23.6 °F 10.4 °F 41% 30.07 in 10.0 mi West 10.4 mph - N/A   Clear
8:55 PM 32.0 °F 25.6 °F 12.2 °F 44% 30.07 in 10.0 mi West 6.9 mph - N/A   Clear
9:15 PM 28.4 °F 21.2 °F 12.2 °F 51% 30.08 in 10.0 mi West 6.9 mph - N/A   Clear
9:35 PM 28.4 °F 22.2 °F 12.2 °F 51% 30.08 in 10.0 mi West 5.8 mph - N/A   Clear
9:55 PM 28.4 °F 21.2 °F 14.0 °F 55% 30.08 in 10.0 mi WSW 6.9 mph - N/A   Clear
10:15 PM 28.4 °F 20.4 °F 14.0 °F 55% 30.08 in 10.0 mi WSW 8.1 mph - N/A   Clear
10:35 PM 26.6 °F - 14.0 °F 59% 30.08 in 10.0 mi Calm Calm - N/A   Clear
10:55 PM 28.4 °F 19.7 °F 15.8 °F 59% 30.08 in 10.0 mi WSW 9.2 mph - N/A   Clear
11:15 PM 30.2 °F 24.3 °F 14.0 °F 51% 30.09 in 10.0 mi West 5.8 mph - N/A   Clear
11:35 PM 28.4 °F 21.2 °F 14.0 °F 55% 30.08 in 10.0 mi West 6.9 mph - N/A   Clear
11:55 PM 26.6 °F 21.2 °F 14.0 °F 59% 30.08 in 10.0 mi West 4.6 mph - N/A   Clear